Provo, UT

9:30 AM MDT on July 28, 2017 (GMT -0600)
Provo Municipal

Weather History for KPVU - December, 2011

Change the Weather History Date:

Saturday, December 24, 2011

  Actual Average Record
Temperature  
Mean Temperature 26 °F -  
Max Temperature 42 °F 33 °F 51 °F (2003)
Min Temperature 10 °F 19 °F -11 °F (1990)
Degree Days  
Heating Degree Days 39    
Moisture  
Dew Point 12 °F    
Average Humidity 80    
Maximum Humidity 100    
Minimum Humidity 34    
Precipitation  
Precipitation 0.00 in - - ()
Sea Level Pressure  
Sea Level Pressure 30.62 in    
Wind  
Wind Speed 2 mph (SE)    
Max Wind Speed 7 mph    
Max Gust Speed -    
Visibility 11 miles    
Events      
Averages and records for this station are not official NWS values.
T = Trace of Precipitation, MM = Missing Value Source: NWS Daily Summary

Daily Weather History Graph

Daily Weather History Graph

Search for Another Location

Airport or City:

Trip Planner

Search our weather history database for the weather conditions in past years. The results will help you decide how hot, cold, wet, or windy it might be!

Date:

Astronomy

Dec. 24, 2011 Rise Set
Actual Time 7:47 AM MST 5:05 PM MST
Civil Twilight 7:16 AM MST 5:36 PM MST
Nautical Twilight 6:42 AM MST 6:10 PM MST
Astronomical Twilight 6:09 AM MST 6:43 PM MST
Moon 7:38 AM MST (12/24) 5:22 PM MST (12/24)
Length of Visible Light 10h 19m
Length of Day
9h 18m
New Moon, 0% of the Moon is Illuminated
Dec 24
New Moon
Dec 31
First Quarter
Jan 9
Full
Jan 16
Last Quarter
Jan 23
New

Hourly Weather History & Observations

Time (MST) Temp. Windchill Dew Point Humidity Pressure Visibility Wind Dir Wind Speed Gust Speed Precip Events Conditions
12:15 AM 15.8 °F 10.2 °F 10.4 °F 79% 30.60 in 10.0 mi SE 3.5 mph - N/A   Clear
12:35 AM 15.8 °F 10.2 °F 8.6 °F 73% 30.60 in 10.0 mi SSE 3.5 mph - N/A   Clear
12:55 AM 15.8 °F 10.2 °F 10.4 °F 79% 30.60 in 10.0 mi SE 3.5 mph - N/A   Clear
1:35 AM 15.8 °F - 10.4 °F 79% 30.60 in 10.0 mi Calm Calm - N/A   Clear
1:55 AM 14.0 °F - 10.4 °F 86% 30.60 in 10.0 mi Calm Calm - N/A   Clear
2:15 AM 15.8 °F - 12.2 °F 86% 30.61 in 10.0 mi Calm Calm - N/A   Clear
2:35 AM 12.2 °F 6.1 °F 8.6 °F 85% 30.61 in 10.0 mi East 3.5 mph - N/A   Clear
2:55 AM 14.0 °F 6.5 °F 10.4 °F 86% 30.61 in 10.0 mi ESE 4.6 mph - N/A   Clear
3:35 AM 12.2 °F - 8.6 °F 85% 30.61 in 10.0 mi Calm Calm - N/A   Clear
3:55 AM 12.2 °F - 6.8 °F 79% 30.60 in 10.0 mi Calm Calm - N/A   Clear
4:15 AM 12.2 °F - 10.4 °F 92% 30.60 in 10.0 mi Calm Calm - N/A   Clear
4:35 AM 15.8 °F - 10.4 °F 79% 30.61 in 10.0 mi Calm Calm - N/A   Clear
4:55 AM 12.2 °F - 10.4 °F 92% 30.62 in 10.0 mi Calm Calm - N/A   Clear
5:15 AM 15.8 °F - 10.4 °F 79% 30.62 in 10.0 mi Calm Calm - N/A   Clear
5:35 AM 12.2 °F 1.7 °F 8.6 °F 85% 30.62 in 10.0 mi South 6.9 mph - N/A   Clear
6:15 AM 12.2 °F 6.1 °F 10.4 °F 92% 30.64 in 10.0 mi ESE 3.5 mph - N/A   Clear
6:35 AM 10.4 °F 4.0 °F 6.8 °F 85% 30.64 in 10.0 mi South 3.5 mph - N/A   Clear
6:50 AM 12.2 °F 2.9 °F 12.2 °F 100% 30.63 in 10.0 mi SSE 5.8 mph - N/A   Clear
7:47 AM 12.2 °F - 8.6 °F 85% 30.64 in 15.0 mi Calm Calm - N/A   Partly Cloudy
9:47 AM 19.4 °F 12.8 °F 14.0 °F 80% 30.67 in 15.0 mi Variable 4.6 mph - N/A   Partly Cloudy
10:49 AM 21.2 °F - 14.0 °F 74% 30.68 in 15.0 mi Calm Calm - N/A   Partly Cloudy
11:47 AM 24.8 °F - 14.0 °F 64% 30.65 in 15.0 mi Calm Calm - N/A   Partly Cloudy
12:59 PM 26.6 °F - 14.0 °F 59% 30.63 in 15.0 mi Calm Calm - N/A   Partly Cloudy
2:50 PM 30.2 °F - 12.2 °F 47% 30.61 in 15.0 mi Calm Calm - N/A   Partly Cloudy
4:50 PM 28.4 °F - 15.8 °F 59% 30.62 in 15.0 mi Calm Calm - N/A   Partly Cloudy
6:50 PM 21.2 °F - 15.8 °F 80% 30.62 in 15.0 mi Calm Calm - N/A   Partly Cloudy
7:50 PM 42.8 °F - 15.8 °F 34% 30.69 in 15.0 mi Calm Calm - N/A   Clear
8:50 PM 19.4 °F - 17.6 °F 93% 30.62 in 15.0 mi Calm Calm - N/A   Clear
9:15 PM 19.4 °F - 15.8 °F 86% 30.62 in 10.0 mi Calm Calm - N/A   Clear
9:35 PM 19.4 °F - 15.8 °F 86% 30.61 in 10.0 mi Calm Calm - N/A   Clear
9:55 PM 17.6 °F - 15.8 °F 93% 30.62 in 10.0 mi Calm Calm - N/A   Clear
10:15 PM 19.4 °F - 17.6 °F 93% 30.62 in 10.0 mi Calm Calm - N/A   Clear
10:35 PM 19.4 °F - 17.6 °F 93% 30.61 in 10.0 mi Calm Calm - N/A   Clear
11:15 PM 19.4 °F - 14.0 °F 80% 30.62 in 10.0 mi Calm Calm - N/A   Clear
11:35 PM 17.6 °F - 14.0 °F 86% 30.62 in 10.0 mi Calm Calm - N/A   Clear
11:55 PM 19.4 °F - 14.0 °F 80% 30.61 in 10.0 mi Calm Calm - N/A   Clear